ONEWEB-0124 (47270 NORAD) Tracking and Keplerian Element Data

This shows tracking and keplerian element data for the satellite.

Feedback or suggestion? Click here.




ElementValue
Catalog47270
NameONEWEB-0124
Epoch Orbit180
Epoch Day101.91668981
Epoch Year2021
RAAN6.8955
Inclination87.9389
Eccentricity0.0001598
Argument of Perigee93.3
Mean Anonmoly259.6643
Mean Motion13.23359679
Decay Rate-0.00035872
L11 47270U 20100N 21101.91668981 -.00035872 00000-0 -85266-1 0 9991
L22 47270 87.9389 6.8955 0001598 93.3000 259.6643 13.23359679 1809

Live tracking and technical data element details for ONEWEB-0124 (NORAD 47270). ONEWEB-0124 can be tracked NOW for your location showing map with azimuth and elevation plus other details from your city location.

Track the satellite on the map from your city or location and see movement details for azimuth, elevation, latitude, longitude, range, height, and movement on the map or in text.







IsCatalogInMostPopularTable: catalog: 47270, numindb: 33
Update: records affected: 1



GetName: 47270 ONEWEB-0124

Hit Count: updated at: Tue, 13 Apr 2021 04:23:23 GMT